Weather History for Al Udeid, Qatar

Change the Weather History Date:

Thursday, December 12, 2013

  Actual Average Record
Temperature  
Mean Temperature 70 °F -  
Max Temperature 79 °F - - ()
Min Temperature 61 °F - - ()
Cooling Degree Days 5    
Growing Degree Days 20 (Base 50)    
Moisture  
Dew Point 61 °F    
Average Humidity 75    
Maximum Humidity 97    
Minimum Humidity 41    
Precipitation  
Precipitation 0.00 in - - ()
Sea Level Pressure  
Sea Level Pressure 29.99 in    
Wind  
Wind Speed 8 mph ()    
Max Wind Speed 18 mph    
Max Gust Speed -    
Visibility 6.2 miles    
Events      
T = Trace of Precipitation, MM = Missing Value Source: Averaged Metar Reports

Daily Weather History Graph

Daily Weather History Graph

Search for Another Location

Airport:

Trip Planner

Search our weather history database for the weather conditions in past years. The results will help you decide how hot, cold, wet, or windy it might be!

Date:

Astronomy

Dec. 12, 2013 Rise Set
Actual Time 6:10 AM AST 4:46 PM AST
Civil Twilight 5:45 AM AST 5:11 PM AST
Nautical Twilight 5:17 AM AST 5:39 PM AST
Astronomical Twilight 4:49 AM AST 6:07 PM AST
Moon 1:19 PM AST (12/12) 1:32 AM AST (12/12)
Length of Visible Light 11h 25m
Length of Day
10h 35m
Waxing Gibbous, 77% of the Moon is Illuminated
Dec 12
Waxing Gibbous
Dec 17
Full
Dec 25
Last Quarter
Jan 1
New
Jan 8
First Quarter

Hourly Weather History & Observations

Time (AST) Temp. Dew Point Humidity Pressure Visibility Wind Dir Wind Speed Gust Speed Precip Events Conditions
12:58 AM 63.5 °F 57.6 °F 81% 29.99 in 6.2 mi SE 4.6 mph - N/A   Clear
1:58 AM 63.5 °F 58.5 °F 84% 29.98 in 6.2 mi NE 1.2 mph - N/A   Clear
2:58 AM 61.3 °F 57.2 °F 86% 29.97 in 6.2 mi East 6.9 mph - N/A   Clear
3:58 AM 64.0 °F 59.9 °F 86% 29.96 in 6.2 mi East 5.8 mph - N/A   Clear
4:58 AM 62.6 °F 59.7 °F 90% 29.97 in 6.2 mi ESE 8.1 mph - N/A   Clear
5:58 AM 64.0 °F 60.4 °F 88% 30.00 in 6.2 mi East 6.9 mph - N/A   Clear
6:58 AM 63.9 °F 60.6 °F 89% 30.01 in 6.2 mi ESE 8.1 mph - N/A   Clear
7:58 AM 67.6 °F 62.4 °F 83% 30.03 in 6.2 mi SE 5.8 mph - N/A   Clear
8:58 AM 73.2 °F 63.9 °F 72% 30.04 in 6.2 mi SE 16.1 mph - N/A   Clear
9:58 AM 75.9 °F 62.4 °F 63% 30.03 in 6.2 mi SE 18.4 mph - N/A   Clear
10:58 AM 77.4 °F 62.1 °F 59% 30.01 in 6.2 mi SE 17.3 mph - N/A   Clear
11:58 AM 79.0 °F 57.4 °F 47% 29.99 in 6.2 mi SSE 17.3 mph - N/A   Clear
12:58 PM 79.5 °F 56.5 °F 45% 29.96 in 6.2 mi SSE 17.3 mph - N/A   Clear
1:58 PM 79.5 °F 54.0 °F 41% 29.95 in 6.2 mi SE 16.1 mph - N/A   Clear
2:58 PM 78.6 °F 55.9 °F 46% 29.94 in 6.2 mi SE 16.1 mph - N/A   Clear
3:58 PM 77.2 °F 58.6 °F 53% 29.95 in 6.2 mi ESE 15.0 mph - N/A   Clear
4:58 PM 74.3 °F 61.7 °F 65% 29.96 in 6.2 mi East 10.4 mph - N/A   Clear
5:58 PM 72.0 °F 63.5 °F 75% 29.98 in 6.2 mi East 8.1 mph - N/A   Clear
6:58 PM 70.9 °F 65.1 °F 82% 29.99 in 6.2 mi East 9.2 mph - N/A   Clear
7:58 PM 69.8 °F 65.8 °F 87% 30.00 in 6.2 mi East 8.1 mph - N/A   Clear
8:58 PM 68.9 °F 66.7 °F 93% 30.00 in 6.2 mi ENE 8.1 mph - N/A   Clear
9:58 PM 68.0 °F 67.1 °F 97% 30.00 in 6.2 mi East 9.2 mph - N/A   Clear
10:58 PM 68.9 °F 68.0 °F 97% 29.98 in 6.2 mi East 8.1 mph - N/A   Clear
11:58 PM 69.1 °F 68.0 °F 96% 29.97 in 6.2 mi ESE 11.5 mph - N/A   Clear